Meteo Giornale » Osservazioni meteo Croazia » Pula Aerodrome

ore: 13:30 - Osservazioni Meteo Pula Aerodrome
Lat. 45° 54' N Lon. 13° 55' E Alt. 63 metri s.l.m.

molto_nuvoloso Europe/Zagreb

31 °C

Molto Nuvoloso

Temp. 24 Ore

20 °C

33 °C

Sud

9.3 Km/h

Dew point 20 °C

Umidità 52 %

Visibilità  10 Km

Il sole sorge alle ore 05:34

Il sole tramonta alle ore 20:46

Data e Ora Cielo e Fenomeni T °C DP °C Um. % Pres. hPa Vis. km Vento km/h
Oggi h: 13:30 molto_nuvoloso Molto Nuvoloso 31 20 52 1011 10 S 9.3
Oggi h: 13:00 nuvoloso Nuvoloso 33 20 46 1011 10 N 5.5
Oggi h: 12:30 nuvoloso Nuvoloso 33 20 46 1010 10 N 13
Oggi h: 12:00 poco_nuvoloso Poco Nuvoloso 33 20 46 1010 10 N 16.7
Oggi h: 11:30 poco_nuvoloso Poco Nuvoloso 32 20 49 1010 10 N/NO 20.3
Oggi h: 11:00 sereno Sereno 31 20 52 1010 10 N 18.5
Oggi h: 10:30 sereno Sereno 31 20 52 1011 10 N/NO 14.8
Oggi h: 10:00 sereno Sereno 31 19 48 1011 10 N/NO 16.7
Oggi h: 09:30 sereno Sereno 30 20 55 1011 10 N 14.8
Oggi h: 09:00 sereno Sereno 30 20 55 1011 10 N 11.1
Oggi h: 08:30 sereno Sereno 29 21 62 1011 10 N/NE 7.4
Oggi h: 08:00 sereno Sereno 27 20 65 1010 10 N/NE 7.4
Oggi h: 07:30 sereno Sereno 26 19 65 1010 10 N/NE 9.3
Oggi h: 07:00 sereno Sereno 25 18 65 1010 10 N/NE 13
Oggi h: 06:30 sereno Sereno 24 18 69 1010 10 N/NE 13
Oggi h: 06:00 sereno Sereno 24 18 69 1009 10 N/NE 13
Oggi h: 05:30 sereno Sereno 24 18 69 1009 10 N/NE 11.1
Oggi h: 05:00 sereno Sereno 23 18 73 1009 10 N/NE 9.3
Oggi h: 04:30 sereno Sereno 23 18 73 1009 10 N/NE 9.3
Oggi h: 04:00 sereno Sereno 23 19 78 1010 10 N/NE 9.3
Oggi h: 03:30 sereno Sereno 23 20 83 1010 10 N 9.3
Oggi h: 03:00 sereno Sereno 23 20 83 1010 10 N 7.4
Oggi h: 02:30 sereno Sereno 23 20 83 1010 10 N 11.1
Oggi h: 02:00 sereno Sereno 23 20 83 1010 10 N 5.5
Oggi h: 01:30 sereno Sereno 22 20 88 1010 10 N 3.7
Oggi h: 01:00 sereno Sereno 22 20 88 1010 10 N 3.7
Oggi h: 00:30 sereno Sereno 22 20 88 1010 10 N 3.7
Oggi h: 00:00 sereno Sereno 22 19 83 1010 10 N 3.7
Ieri h: 23:30 sereno Sereno 20 19 93 1010 10 N 1.8
Ieri h: 23:00 sereno Sereno 22 19 83 1010 10 N 5.5
Ieri h: 22:30 sereno Sereno 21 19 88 1010 10 N 5.5
Ieri h: 22:00 sereno Sereno 23 19 78 1010 10 N 5.5
Ieri h: 21:30 sereno Sereno 23 19 78 1010 10 N 3.7
Ieri h: 21:00 sereno Sereno 24 19 73 1009 10 O 7.4
Ieri h: 20:30 sereno Sereno 25 19 69 1009 10 O 9.3
Ieri h: 20:00 sereno Sereno 27 17 54 1009 10 O 9.3
Ieri h: 19:30 sereno Sereno 28 19 58 1009 10 N 5.5
Ieri h: 19:00 sereno Sereno 29 17 48 1009 10 N 5.5
Ieri h: 18:30 sereno Sereno 30 17 45 1008 10 S/SO 7.4
Ieri h: 18:00 sereno Sereno 31 16 40 1008 10 S/SE 7.4
Ieri h: 17:30 sereno Sereno 31 17 43 1008 10 SE 7.4
Ieri h: 17:00 sereno Sereno 31 18 45 1008 10 SO 9.3
Ieri h: 16:30 sereno Sereno 31 19 48 1009 10 S/SO 9.3
Ieri h: 16:00 sereno Sereno 31 20 52 1009 10 S/SO 9.3
Ieri h: 15:30 sereno Sereno 30 20 55 1009 10 SO 11.1
Ieri h: 15:00 sereno Sereno 31 20 52 1009 10 SO 13